Hourly Data

Hourly Data Report for March 12, 2012

All times are specified in Local Standard Time (LST). Add 1 hour to adjust for Daylight Saving Time where and when it is observed.

Metadata including Station Name, Province, Latitude, Longitude, Elevation, Climate ID, WMO ID, TC ID
ST-JOVITE
QUEBEC
Latitude: 46°04'49.000" N Longitude: 74°33'21.000" W Elevation: 238.50 m
Climate ID: 703GDKB WMO ID: 71376 TC ID: WJT
Hourly Data Report for March 12, 2012
Temp Definition
°C

Dew Point Temp Definition
°C

Rel Hum Definition
%

Wind Dir Definition
10's deg
Wind Spd Definition
km/h

Visibility Definition
km

Stn Press Definition
kPa

Hmdx Definition

Wind Chill Definition

Weather Definition

TIME
00:00 -3.4 -3.6 99   0 99.29 LegendNANA
01:00 -3.9 -4.1 99   0 99.33 LegendNANA
02:00 -4.1 -4.3 99   0 99.35 LegendNANA
03:00 -4.5 -4.7 99   0 99.38 LegendNANA
04:00 -4.8 -5.0 98   0 99.37 LegendNANA
05:00 -4.8 -5.0 98   0 99.38 LegendNANA
06:00 -5.4 -5.7 98 35 2 99.48 -6 LegendNANA
07:00 -5.3 -5.6 98   0 99.56 LegendNANA
08:00 -2.0 -2.1 99   0 99.59 LegendNANA
09:00 4.5 0.7 76 35 2 99.56 LegendNANA
10:00 5.5 -0.4 66 26 4 99.53 LegendNANA
11:00 9.6 0.1 51 28 4 99.46 LegendNANA
12:00 12.3 -0.6 41 28 4 99.39 LegendNANA
13:00 13.1 -2.3 34 21 6 99.29 LegendNANA
14:00 13.8 -2.3 33 21 6 99.23 LegendNANA
15:00 12.5 -0.7 40 21 4 99.16 LegendNANA
16:00 9.7 -0.1 50 21 6 99.16 LegendNANA
17:00 6.8 -0.5 60 10 2 99.12 LegendNANA
18:00 4.5 -1.0 67   0 99.10 LegendNANA
19:00 3.9 -1.0 70 4 4 99.02 LegendNANA
20:00 4.5 -0.8 68 5 6 98.96 LegendNANA
21:00 3.6 -0.8 73 9 2 98.94 LegendNANA
22:00 5.0 -0.8 66 6 6 98.85 LegendNANA
23:00 5.7 -0.9 62 11 2 98.75 LegendNANA

Notes on Data Quality.

Legend
  • M = Missing
  • E = Estimated
  • NA = Not Available
  • ‡ = Partner data that is not subject to review by the National Climate Archives